This is the latest recevied weather packets stored in our database for station/object DL1MMS-10. If no packets are shown the sender has not sent any weather packets the latest 10 day(s).
| Time | Temp. | Humidity | Pressure | Rain* | Wind** | Luminosity | Snow |
|---|---|---|---|---|---|---|---|
| 1777475696 | 29.44° C | 20% | 1020.1 hPa | 0 mm | - | - | - |
| 1777475396 | 30° C | 20% | 1020.1 hPa | 0 mm | - | - | - |
| 1777475095 | 30° C | 20% | 1020.1 hPa | 0 mm | - | - | - |
| 1777474795 | 30° C | 21% | 1020.2 hPa | 0 mm | - | - | - |
| 1777474495 | 30° C | 20% | 1020.2 hPa | 0 mm | - | - | - |
| 1777474194 | 29.44° C | 20% | 1020.3 hPa | 0 mm | - | - | - |
| 1777473894 | 30° C | 21% | 1020.2 hPa | 0 mm | - | - | - |
| 1777473594 | 30° C | 21% | 1020.2 hPa | 0 mm | - | - | - |
| 1777473294 | 29.44° C | 21% | 1020.2 hPa | 0 mm | - | - | - |
| 1777472993 | 28.89° C | 22% | 1020.2 hPa | 0 mm | - | - | - |
| 1777472693 | 28.89° C | 22% | 1020.2 hPa | 0 mm | - | - | - |
| 1777472393 | 28.33° C | 22% | 1020.1 hPa | 0 mm | - | - | - |
| 1777472092 | 28.33° C | 22% | 1020.1 hPa | 0 mm | - | - | - |
| 1777471792 | 27.78° C | 23% | 1020.2 hPa | 0 mm | - | - | - |
| 1777471492 | 27.78° C | 22% | 1019.9 hPa | 0 mm | - | - | - |
| 1777471192 | 28.89° C | 22% | 1020 hPa | 0 mm | - | - | - |
| 1777470891 | 28.89° C | 22% | 1020 hPa | 0 mm | - | - | - |
| 1777470591 | 28.89° C | 23% | 1020.2 hPa | 0 mm | - | - | - |
| 1777470291 | 28.33° C | 23% | 1020.2 hPa | 0 mm | - | - | - |
| 1777469991 | 27.78° C | 25% | 1020.3 hPa | 0 mm | - | - | - |
| 1777469690 | 27.78° C | 23% | 1020.2 hPa | 0 mm | - | - | - |
| 1777469390 | 27.78° C | 25% | 1020.2 hPa | 0 mm | - | - | - |
| 1777469090 | 27.78° C | 24% | 1020.1 hPa | 0 mm | - | - | - |
| 1777468789 | 27.22° C | 26% | 1020.1 hPa | 0 mm | - | - | - |
| 1777468489 | 27.22° C | 26% | 1020.1 hPa | 0 mm | - | - | - |
* Rain latest hour (hover to see other rain measurements)
** Current wind speed in m/s (hover to see current wind gust speed)